Location: Ibersheim
(49.7217°N, 8.4008°E)
Time: 14:17:41
(UTC+00:00)

Daily predictions for brighter satellites

Satellite Brightness Start Highest point End
(mag) Time Altitude Azimuth Time Altitude Azimuth Time Altitude Azimuth
BREEZE-M DEB (TANK) 4.0 19:06:52 10° SW 19:11:09 66° SE 19:27:24 10° ENE
ATLAS 3B R/B 3.1 19:17:30 10° NW 19:25:23 75° NE 19:32:47 10° SE
Cosmos 1867 3.6 19:24:13 10° SSW 19:29:37 72° SE 19:35:04 10° NE
Cosmos 332 Rocket 3.9 19:24:59 10° NNW 19:29:47 83° WSW 19:34:32 10° SSE
USA 186 3.1 19:28:50 10° ESE 19:30:48 19° ENE 19:32:51 10° NNE
Meteor 1-31 Rocket 3.2 19:29:52 10° S 19:33:16 54° WSW 19:36:43 10° NNW
MOS 1 4.4 19:32:12 10° SSE 19:37:53 87° WSW 19:43:37 10° NNW
Okean-O 3.2 19:33:50 10° SE 19:37:56 41° ENE 19:42:02 10° N
Cosmos 968 Rocket 3.6 19:32:53 10° NNW 19:38:09 76° ENE 19:43:23 10° SSE
Cosmos 676 Rocket 4.3 19:33:25 10° NNW 19:38:38 70° WSW 19:43:47 10° SSE
Cosmos 2333 Rocket 4.3 19:35:35 10° N 19:39:13 17° NNE 19:42:51 10° ENE
Cosmos 1892 Rocket 4.4 19:38:27 10° N 19:42:25 34° ENE 19:46:20 10° SE
Meteor 2-1 Rocket 4.3 19:38:19 10° S 19:43:54 60° E 19:49:23 10° NNE
Cosmos 2173 Rocket 4.1 19:38:59 10° S 19:44:58 60° E 19:51:04 10° NNE
Cosmos 1455 Rocket 3.9 19:43:54 10° SSE 19:47:46 31° E 19:51:39 10° NNE
Cosmos 1980 Rocket 2.5 19:45:50 10° NNW 19:51:29 56° NE 19:56:48 11° SE
SL-08 R/B 3.5 19:46:47 10° NNE 19:51:35 57° E 19:56:17 10° S
Okean 1 Rocket 3.1 19:49:22 10° S 19:53:42 67° E 19:58:06 10° NNE
Meteor 2-3 Rocket 3.8 19:51:18 10° NNW 19:56:57 85° W 20:02:35 10° S
Cosmos 2084 4.2 19:53:45 10° WSW 19:57:49 56° NW 20:01:55 10° NE
SPOT 3 Rocket 4.3 19:53:56 11° SE 19:58:30 39° ENE 20:03:15 10° N
CZ-4 R/B 2.9 19:56:24 10° SSW 19:59:37 30° W 20:02:51 10° NNW
CZ-4B R/B 3.7 19:58:30 13° ESE 20:00:52 27° ENE 20:03:46 10° N
Cosmos 1850 Rocket 4.0 19:56:16 10° NNW 20:01:27 76° ENE 20:06:17 12° SSE
Cosmos 1782 3.6 19:59:06 13° SE 20:01:38 26° E 20:04:37 10° NNE
ASTEX 1 4.5 20:01:15 10° SSW 20:06:00 46° W 20:10:47 10° NNW
CZ-4B R/B 3.8 20:03:54 10° S 20:09:29 61° WSW 20:15:05 10° NNW
Cosmos 2056 Rocket 4.5 20:04:33 10° SW 20:09:51 54° WNW 20:15:08 10° NNE
Cosmos 1833 Rocket 3.0 20:05:17 10° SW 20:10:52 71° WNW 20:16:30 10° NNE
Cosmos 2084 Rocket 4.5 20:07:00 10° NNW 20:10:55 37° NE 20:14:32 12° ESE
Cosmos 1110 Rocket 4.0 20:05:54 10° SSW 20:11:10 74° ESE 20:16:29 10° NNE
Cosmos 1802 Rocket 4.0 20:05:18 10° S 20:11:26 66° E 20:17:32 10° NNE
Terra 2.7 20:09:14 10° S 20:13:44 47° W 20:18:17 10° NNW
Gbstr 26 Del rocket 3.2 20:10:17 10° WNW 20:15:29 77° SSW 20:18:53 16° ESE
Sich 1 Rocket 3.6 20:12:11 10° S 20:16:33 83° W 20:20:57 10° N
Cosmos 2360 Rocket 4.2 20:13:01 10° N 20:16:51 18° NE 20:20:39 10° ENE
SJ 16-02 4.4 20:19:47 10° W 20:20:01 10° W 20:20:14 10° W
YAOGAN 11 4.1 20:16:50 10° NNE 20:21:14 72° ESE 20:25:39 10° S
CZ-2C R/B 3.4 20:23:39 19° ESE 20:24:40 24° ENE 20:27:00 10° NNE
Cosmos 1743 2.0 20:23:35 10° N 20:26:37 88° WSW 20:28:34 20° S
Meteor 1-27 4.2 20:25:20 10° S 20:30:59 73° E 20:36:36 10° NNE
Cosmos 44 Rocket 3.3 20:26:29 10° SSW 20:31:30 67° SE 20:36:39 10° NE
Cosmos 1459 Rocket 4.3 20:26:18 10° SSW 20:32:31 70° WNW 20:38:42 10° N
ISS -3.1 20:29:36 10° SSW 20:32:38 32° SSE 20:35:05 14° E
Cosmos 2219 Rocket 4.4 20:30:48 10° N 20:34:19 16° NNE 20:37:50 10° ENE
Meteor 2-12 Rocket 4.4 20:29:45 10° N 20:35:51 80° E 20:40:49 16° SSE
Ariane Rocket 3.1 20:32:21 19° SE 20:35:54 61° ENE 20:40:54 10° N
ATLAS 2AS CENTAUR R/B 3.7 20:33:48 10° WSW 20:40:31 51° NW 20:47:09 10° NE
Spot 2 Rocket 4.2 20:37:06 10° S 20:41:58 50° W 20:46:52 10° NNW
Cosmos 2369 3.8 20:36:51 10° NNW 20:42:35 71° ENE 20:46:24 22° SE
BREEZE-M DEB (TANK) 4.2 20:39:49 10° W 20:42:56 38° SSW 20:47:10 19° SE
SL-4 R/B 3.6 20:40:15 10° W 20:43:07 20° SW 20:44:44 16° S
Cosmos 2322 Rocket 3.8 20:40:09 10° NNW 20:44:47 25° NE 20:49:16 11° E
Cosmos 2082 Rocket 2.3 20:41:22 10° S 20:46:53 53° ESE 20:52:27 10° NE
Cosmos 1437 Rocket 3.9 20:47:59 21° E 20:48:16 21° E 20:51:01 10° NE
USA 305 2.6 20:45:06 10° WNW 20:49:13 75° NNE 20:51:07 26° ESE
Cosmos 909 Rocket 4.3 20:43:40 10° S 20:49:41 46° ESE 20:55:45 10° NE
Cosmos 2151 3.6 20:47:18 10° N 20:51:12 39° ENE 20:52:53 26° ESE
USA 234 4.3 20:49:58 10° ENE 20:54:52 22° SE 20:55:31 21° SE
Cosmos 2233 Rocket 4.0 20:51:22 10° S 20:57:35 90° E 21:03:48 10° N
Cosmos 1607 3.9 20:51:54 10° SSW 20:57:58 65° ESE 21:04:10 10° NE
Cosmos 1626 Rocket 3.6 20:53:40 10° N 20:58:00 64° ENE 21:00:05 29° SSE
Cosmos 2228 2.9 20:55:36 16° SSW 20:58:52 80° WNW 21:03:00 10° N
USA 186 3.7 20:58:27 12° SW 21:00:07 19° W 21:02:08 10° NW
Okean O Rocket 3.1 20:57:33 10° SSW 21:01:21 31° W 21:05:11 10° NNW
Tsikada Rocket 4.1 20:58:01 10° NNW 21:04:11 73° W 21:08:51 18° S
CZ-4C R/B 2.2 21:04:35 10° SW 21:08:52 65° NW 21:14:26 10° NE
Cosmos 1992 Rocket 4.1 21:05:58 23° S 21:09:03 55° ESE 21:14:08 10° NNE
Cosmos 1452 Rocket 4.1 21:04:26 10° SW 21:09:35 58° WNW 21:14:46 10° NNE
COSMOS 2406 3.7 21:07:29 26° SSE 21:10:03 40° ESE 21:15:23 10° NE
Meteor 1-20 Rocket 4.2 21:05:20 10° N 21:10:53 71° ENE 21:13:52 28° SSE
SL-16 R/B 2.6 21:06:15 10° NNW 21:11:50 54° NE 21:14:58 25° ESE
Helios 1A 4.0 21:09:35 10° NE 21:12:53 25° E 21:13:02 25° E
Okean-O 4.5 21:10:45 10° SSW 21:14:21 25° W 21:17:57 10° NW
ATLAS 3B R/B 4.0 21:08:54 10° NW 21:15:36 33° WSW 21:20:47 15° SSW
Cosmos 1805 3.8 21:14:49 10° N 21:17:47 31° ENE 21:18:02 30° E
CZ-4B R/B 3.9 21:19:07 23° SSW 21:21:53 51° W 21:26:34 10° NNW
Cosmos 2333 Rocket 2.5 21:19:07 10° NNW 21:24:46 59° ENE 21:27:39 29° SE
Cosmos 2098 Rocket 3.8 21:25:32 34° SE 21:27:10 45° E 21:31:36 10° NNE
Cosmos 1302 Rocket 4.3 21:22:07 10° SW 21:27:15 66° WNW 21:32:26 10° NNE
Meteor 1-25 Rocket 4.2 21:24:12 10° N 21:29:56 76° ENE 21:32:32 33° SSE
CZ-4B R/B 4.4 21:33:11 17° SW 21:34:37 22° W 21:37:20 10° NW
Cosmos 1980 Rocket 3.6 21:30:20 10° NW 21:35:08 29° WSW 21:38:33 16° SSW
Cosmos 2061 Rocket 4.5 21:29:50 11° SSW 21:35:38 59° WNW 21:41:51 10° N
Cosmos 1544 Rocket 3.6 21:35:33 31° SSW 21:37:34 75° W 21:41:56 10° N
NOSS 3-3 (A) 3.6 21:34:26 10° SW 21:39:33 79° SE 21:45:49 10° NE
Cosmos 1933 3.1 21:44:19 50° SSW 21:45:15 80° W 21:49:05 10° N
Okean 1 3.9 21:49:59 35° E 21:49:59 35° E 21:52:58 10° NNE
Cosmos 2084 Rocket 4.0 21:45:44 10° NW 21:49:41 41° SW 21:50:19 38° SSW
Cosmos 1758 Rocket 4.5 21:47:51 10° NNW 21:51:58 41° W 21:53:42 28° SW
Helios 1B rocket 2.2 21:51:51 54° E 21:52:04 55° ENE 21:55:31 10° N
CZ-2C R/B 4.3 21:55:17 16° W 21:55:28 16° W 21:57:21 10° NW
Cosmos 1464 Rocket 3.9 21:53:23 35° S 21:56:09 76° E 22:02:19 10° NNE
Cosmos 2360 Rocket 2.4 21:56:17 10° NNW 22:01:58 66° ENE 22:04:14 36° SE
Meteor 2-10 4.2 21:59:07 10° NNW 22:04:51 89° W 22:06:57 42° S
NOSS 3-3 (C) 3.7 22:02:52 14° SW 22:07:30 84° NW 22:13:56 10° NE
ALOS 2 3.5 22:06:32 33° E 22:07:33 38° ENE 22:11:38 10° N
ARIANE 5 R/B 3.2 22:07:11 39° ESE 22:08:10 46° ENE 22:12:25 10° N
Cosmos 1825 Rocket 3.4 22:04:05 10° N 22:08:26 90° NE 22:09:11 61° S
Geosat 4.3 22:03:45 10° NNE 22:08:43 65° NW 22:12:24 18° SW
ISS -2.9 22:05:55 10° W 22:08:14 41° W 22:08:14 41° W
Cosmos 1953 Rocket 3.7 22:05:48 10° N 22:10:07 56° ENE 22:10:47 50° ESE
Cosmos 2058 Rocket 4.0 22:11:46 32° E 22:11:54 32° E 22:15:46 10° NNE
USA 305 4.1 22:10:55 10° WNW 22:13:09 23° WSW 22:13:09 23° WSW
BREEZE-M R/B 4.3 22:08:13 10° W 22:16:37 85° N 22:22:20 10° E
Cosmos 1602 Rocket 4.5 22:13:38 10° NNW 22:17:37 38° W 22:18:42 32° SW
Cosmos 1092 Rocket 4.1 22:12:29 10° N 22:18:37 62° ENE 22:20:51 39° SE
Cosmos 2219 Rocket 2.6 22:13:55 10° NNW 22:19:30 58° NE 22:21:48 34° ESE
CZ-2C R/B 3.8 22:15:25 10° NNE 22:19:45 52° E 22:20:05 50° ESE
DEBRIS 4.4 22:15:35 10° W 22:19:51 88° S 22:37:00 10° E
NOSS 3-4 (A) 3.7 22:15:34 10° NW 22:22:14 89° SW 22:26:00 33° SE
Cosmos 1437 Rocket 4.1 22:21:47 25° WSW 22:22:48 29° WNW 22:25:58 10° N
NOSS 3-4 (C) 3.8 22:16:11 10° NW 22:22:52 90° S 22:26:40 33° SE
Cosmos 540 Rocket 3.9 22:23:21 40° ESE 22:23:48 41° ESE 22:28:38 10° NE
PSLV R/B 4.5 22:21:59 10° NNE 22:25:44 33° E 22:25:44 33° E
Cosmos 1461 2.9 22:26:32 54° ENE 22:26:32 54° ENE 22:29:32 10° NE
Cosmos 2322 Rocket 2.1 22:23:46 10° NNW 22:29:27 78° WSW 22:31:03 48° S
Cosmos 2034 Rocket 4.0 22:27:37 40° S 22:30:10 89° ESE 22:36:35 10° N
Cosmos 2082 Rocket 3.8 22:26:04 10° WSW 22:31:13 34° NW 22:36:24 10° NNE
Cosmos 220 Rocket 4.0 22:32:36 56° WSW 22:33:14 67° WNW 22:37:19 10° NNE
Cosmos 1707 3.9 22:38:21 27° NNE 22:38:21 27° NNE 22:39:51 10° NNE
Cosmos 1536 3.0 22:34:40 10° N 22:38:06 55° ENE 22:38:06 55° ENE
USA 234 3.2 22:32:09 10° ENE 22:38:41 68° SE 22:42:48 24° SW
ACS3 Solar Sail 3.8 22:39:08 10° NE 22:41:54 13° E 22:44:07 11° ESE
COSMOS 2428 4.0 22:37:41 10° NNW 22:42:55 35° NE 22:46:33 18° ESE
Cosmos 2237 Rocket 4.4 22:41:45 10° N 22:46:01 21° NE 22:50:15 10° E
Cosmos 1763 Rocket 3.5 22:45:39 56° S 22:46:41 71° ESE 22:51:57 10° NNE
Cosmos-2242 2.7 22:47:28 82° SE 22:47:35 83° E 22:51:44 10° NNE
Helios 1A 4.2 22:44:03 10° N 22:47:35 33° WNW 22:48:44 27° W
Cosmos 1503 Rocket 4.0 22:42:56 10° NNW 22:48:06 64° WSW 22:49:02 53° SSW
Cosmos 1777 Rocket 4.4 22:43:16 10° NNW 22:48:19 50° WSW 22:49:16 44° SW
Cosmos 2278 4.3 22:43:03 10° NW 22:48:24 42° WSW 22:49:38 37° SW
CZ-2C R/B 3.9 22:45:24 10° NNE 22:50:44 40° E 22:51:56 36° SE
Cosmos 990 Rocket 3.9 22:46:19 10° NNW 22:51:29 83° WSW 22:52:30 59° S
COSMOS 2406 4.3 22:49:26 13° WSW 22:54:20 42° NW 22:59:48 10° NNE
ARGOS Delta rocket 3.9 22:50:09 10° NNE 22:55:09 73° E 22:56:07 57° SSE
SL-16 R/B 3.3 22:50:47 10° NW 22:55:38 30° WSW 22:56:47 28° SW
USA 290 3.3 22:56:48 42° NNE 22:56:48 42° NNE 22:59:01 10° NNE
CZ-4C R/B 4.4 22:54:05 10° WNW 22:58:13 25° NNW 23:03:19 10° NE
Cosmos 1354 Rocket 3.9 22:53:05 10° NNW 22:58:21 75° WSW 22:59:19 58° S
Cosmos 1634 Rocket 3.9 22:57:50 47° S 22:59:48 85° E 23:06:01 10° N
Cosmos 1766 3.9 22:58:56 10° NNW 23:01:17 40° NW 23:01:17 40° NW
Cosmos 2279 Rocket 4.1 23:01:48 45° SSE 23:03:40 67° E 23:09:52 10° NNE
Cosmos 1470 3.3 23:01:35 10° N 23:04:12 43° NE 23:04:12 43° NE
SeaSat 1 3.0 23:03:53 34° ESE 23:05:43 53° NE 23:10:31 10° NNW
Meteor 2-6 Rocket 4.4 23:06:35 49° SSE 23:08:10 71° E 23:14:08 10° NNE
Cosmos 2333 Rocket 3.4 23:03:58 10° NW 23:08:40 27° WSW 23:09:39 26° WSW
Cosmos 2221 3.0 23:09:56 43° E 23:09:56 43° E 23:13:51 10° NNE
Meteor 2-2 Rocket 4.2 23:10:21 48° SSW 23:11:59 76° WNW 23:17:45 10° N
Cosmos 1842 3.9 23:13:51 41° NNE 23:13:51 41° NNE 23:16:02 10° NNE
Cosmos 841 Rocket 4.4 23:12:28 31° ESE 23:12:56 32° ESE 23:17:31 10° NE
CZ-2C R/B 2.8 23:16:22 45° SE 23:17:53 66° ENE 23:23:06 10° N
BREEZE-M DEB (TANK) 3.4 23:10:52 10° W 23:18:09 72° S 23:23:13 10° ESE
Cosmos 1833 4.2 23:17:41 46° SW 23:19:29 82° WNW 23:25:10 10° NNE
KORONAS-FOTON 4.3 23:25:14 46° NW 23:25:14 46° NW 23:28:01 10° N
Cosmos 1975 2.8 23:24:58 10° N 23:28:17 69° N 23:28:17 69° N
Aureole 1 Rocket 3.8 23:25:12 10° NNW 23:30:30 68° WSW 23:32:02 50° S
Cosmos 2266 Rocket 4.0 23:26:22 10° N 23:32:26 71° ENE 23:34:28 43° SSE
Cosmos 2322 3.7 23:27:33 10° NNW 23:33:17 78° ENE 23:35:16 42° SE
Cosmos 1812 Rocket 3.7 23:34:01 59° ESE 23:34:16 60° E 23:38:37 10° NNE
Cosmos 2297 Rocket 3.6 23:33:58 23° ESE 23:34:56 24° ESE 23:39:20 10° NE
Cosmos 44 3.4 23:31:23 10° NW 23:36:50 86° SW 23:38:07 53° SSE
Cosmos 1271 Rocket 3.0 23:38:06 56° NNW 23:38:06 56° NNW 23:40:56 10° N
Cosmos 372 Rocket 3.9 23:37:45 10° NNW 23:42:51 68° WSW 23:43:34 59° SSW
RESURS DK-1 2.5 23:39:54 10° NNW 23:43:51 61° NE 23:44:13 58° E
ALOS 2 3.9 23:43:55 27° W 23:43:58 27° W 23:47:45 10° NW
Cosmos 1937 Rocket 3.5 23:39:02 10° NNW 23:44:12 72° ENE 23:45:41 46° SE
ARIANE 5 R/B 4.2 23:44:33 22° W 23:44:41 22° W 23:48:12 10° NW
Cosmos 2360 Rocket 3.5 23:41:02 10° NW 23:45:28 24° WSW 23:45:57 24° WSW
ISS-0.223:50:53E23:50:53E23:41:23W
Meteor 1-11 Rocket 3.7 23:42:08 10° NNW 23:47:55 86° ENE 23:49:31 49° SSE
GP-B 2.9 23:44:30 10° N 23:48:54 78° W 23:49:14 72° SW
Cosmos 2058 Rocket 4.4 23:48:52 27° W 23:49:45 29° WNW 23:53:34 10° N
Cosmos 468 Rocket 4.1 23:51:08 46° SW 23:52:35 68° WNW 23:57:51 10° NNE
